Simultaneous Nadir Overpasses (SNOs) Predictions

Prediction of SNOs between GOES-15 and METOP-B Satellite Orbit:

Table of predicted SNOs for the next 14.0 days since TLE Epoch: 8/6/2022
Index Date Time (GOES-15) GOES-15 Lat,Lon METOP-B Lat,Lon Distance(km) Time Diff (sec)
1 08/07/2022 18:00:59 -0.01,-128.08 0.01,-128.09 1.97 80
2 08/10/2022 06:01:59 0.03,-128.03 0.09,-127.69 38.96 80
3 08/11/2022 18:18:11 -0.07,-128.12 0.86,-132.26 472.21 80
4 08/12/2022 18:00:12 -0.05,-128.13 -0.27,-127.27 99.03 80
5 08/14/2022 06:16:31 0.09,-128.08 -0.76,-131.86 431.31 80
6 08/15/2022 05:58:31 0.07,-128.09 0.32,-126.86 139.47 80
7 08/16/2022 18:14:43 -0.11,-128.17 0.63,-131.43 372.12 80
8 08/17/2022 17:56:42 -0.08,-128.18 -0.45,-126.43 199.03 80
9 08/19/2022 06:13:03 0.12,-128.13 -0.52,-131.03 331.11 80
